Snowfall_Accumulation
0.9 0.8 1.0 1.0 1.0 1.2 1.6 2.7 4.5 3.9 1.1 0.3 0.3 0.3 0.4 0.3 0.3 0.4 0.3 0.2 0.3 0.4 0.5 0.4 0.3 0.1 0.1 0.1 0.0 0.0 0.0 0.0 0.1 0.1 0.0 0.1 0.1 0.0
1.1 1.2 1.1 1.1 1.2 1.2 1.4 1.7 2.9 4.8 3.5 0.6 0.4 0.3 0.4 0.4 0.3 0.6 0.5 0.2 0.3 0.3 0.3 0.4 0.3 0.2 0.2 0.1 0.1 0.1 0.0 0.0 0.1 0.1 0.1 0.0 0.1 0.1
1.2 1.4 1.6 1.5 1.5 1.4 1.5 1.8 2.2 3.6 4.7 1.3 0.3 0.3 0.4 0.5 0.4 0.4 0.4 0.3 0.4 0.2 0.2 0.3 0.3 0.3 0.3 0.2 0.1 0.1 0.1 0.1 0.1 0.1 0.1 0.0 0.0 0.0
1.5 1.7 1.8 1.8 2.0 1.8 2.0 2.1 2.2 2.8 4.3 3.1 0.8 0.6 0.6 0.5 0.4 0.4 0.3 0.3 0.4 0.2 0.1 0.3 0.4 0.4 0.4 0.5 0.2 0.2 0.2 0.1 0.1 0.1 0.1 0.0 0.0 0.1
1.8 2.2 2.3 2.6 2.8 2.4 2.5 2.5 2.3 2.1 2.8 3.6 2.0 0.9 0.8 0.6 0.5 0.6 0.5 0.5 0.2 0.2 0.2 0.2 0.3 0.4 0.4 0.5 0.5 0.3 0.3 0.2 0.1 0.2 0.2 0.2 0.1 0.1
2.2 2.6 3.0 3.6 4.1 4.3 4.0 3.6 2.8 3.1 3.2 4.0 3.3 2.1 1.6 1.1 1.5 1.7 1.7 0.9 0.7 0.6 0.5 0.2 0.3 0.3 0.4 0.5 0.4 0.5 0.5 0.4 0.5 0.4 0.4 0.3 0.3 0.3
3.2 3.0 2.8 3.3 4.0 5.1 6.0 6.2 5.7 6.6 5.9 6.1 5.3 3.9 3.1 3.0 3.0 2.4 2.8 1.8 1.2 0.8 0.7 0.5 0.3 0.3 0.3 0.2 0.2 0.3 0.7 0.6 0.5 0.6 0.5 0.4 0.3 0.3
4.6 3.7 3.0 2.7 2.9 2.8 3.6 4.4 5.2 7.9 8.9 9.0 8.4 7.4 4.9 3.3 3.3 3.5 4.4 4.8 3.8 1.2 1.2 1.1 0.7 0.8 0.5 0.3 0.2 0.3 0.6 0.7 0.8 0.8 0.6 0.6 0.6 0.6
3.9 3.4 3.2 2.7 2.6 2.7 3.1 2.5 2.9 3.8 5.9 8.3 10.6 8.3 5.8 5.0 5.1 5.9 5.4 6.0 4.5 2.4 2.5 3.1 1.2 1.3 0.8 0.3 0.3 0.4 0.5 0.9 1.0 0.9 0.9 0.9 1.0 0.8
3.0 3.3 3.5 3.4 3.0 3.5 4.3 4.6 4.1 3.8 4.6 6.5 8.7 7.4 6.0 5.6 6.2 8.1 7.8 8.0 4.9 2.7 2.6 5.2 1.9 1.4 0.9 0.7 0.2 0.3 0.5 0.8 1.2 1.2 1.1 1.1 1.2 1.2
2.8 3.9 4.3 4.0 3.7 4.2 6.3 6.8 5.2 3.8 3.2 4.4 5.5 6.2 5.3 5.7 7.8 10.5 14.0 14.8 11.7 4.4 3.0 5.1 2.7 1.9 1.2 1.1 0.7 0.4 0.5 0.6 0.8 1.1 1.2 1.4 1.5 1.5
3.0 3.8 5.6 5.5 5.2 4.9 6.8 7.9 7.6 4.6 4.0 4.0 4.2 4.3 4.5 5.1 6.1 9.2 11.9 15.6 14.3 10.2 4.9 4.5 4.2 5.2 5.2 1.8 1.1 0.7 0.7 0.7 0.9 0.9 1.2 1.4 1.8 1.8
5.1 5.3 5.8 5.4 5.1 5.2 6.0 7.3 8.0 6.9 6.4 6.2 5.3 4.6 4.8 5.3 6.2 7.8 9.3 12.6 15.3 12.9 7.9 8.0 8.4 7.5 9.2 5.5 2.1 1.6 1.2 0.9 0.7 0.7 0.8 1.1 1.5 2.1
6.0 4.9 5.4 5.5 5.6 5.2 4.9 4.6 5.0 6.1 6.8 6.4 5.8 4.7 4.6 5.0 6.0 7.2 9.3 10.5 11.1 11.1 8.6 9.5 13.2 11.2 12.4 10.2 5.7 3.0 2.2 1.4 1.5 1.3 1.1 1.2 1.3 1.8
5.5 6.3 5.6 5.0 4.6 3.8 3.1 4.0 4.1 5.0 5.9 6.4 5.6 4.5 4.3 4.0 4.6 5.9 7.5 8.8 9.3 9.3 8.0 7.5 9.9 10.0 12.5 12.9 8.0 5.1 3.9 2.7 2.2 2.4 2.0 2.0 1.9 2.2
4.7 4.9 4.9 3.9 3.3 2.8 2.6 3.0 3.5 4.5 6.1 6.8 5.6 4.3 3.9 4.3 5.2 6.1 7.7 9.0 11.1 10.4 8.9 7.3 7.3 9.7 11.9 10.0 9.3 7.5 5.5 5.1 3.7 3.2 2.6 2.5 2.3 2.0
7.7 7.5 6.2 5.0 4.4 3.8 3.4 3.0 3.4 4.3 5.1 5.2 5.5 5.6 5.4 5.2 5.7 6.2 7.9 9.7 11.6 11.3 10.8 9.8 9.5 10.0 11.3 11.8 11.5 8.6 6.2 5.3 4.5 4.4 3.9 3.6 2.8 2.5
7.8 8.5 6.4 5.4 5.0 4.7 4.2 3.9 3.6 4.2 4.6 5.0 5.5 5.9 6.4 6.2 6.2 6.1 7.9 10.0 11.2 10.9 11.0 10.9 12.4 14.3 14.9 14.6 12.5 9.9 7.5 5.7 4.9 4.6 4.4 5.1 4.1 2.8
6.2 6.2 5.3 5.2 5.1 5.2 5.0 4.9 4.4 4.2 4.6 5.5 5.8 6.1 6.7 7.1 7.4 7.1 7.5 8.9 9.9 10.2 10.7 11.4 13.7 18.1 21.1 18.2 13.0 10.3 9.1 7.1 6.1 5.4 4.5 4.9 5.2 3.8
4.3 5.1 5.2 4.9 5.6 5.6 5.5 5.2 4.7 4.7 5.1 5.6 5.8 5.8 6.5 7.6 8.0 7.7 8.1 9.2 10.2 10.9 11.2 11.6 13.9 16.8 20.4 17.9 15.2 12.9 8.6 8.8 8.2 7.5 5.6 4.7 4.0 3.3
4.7 4.8 4.9 5.1 5.5 5.3 5.4 5.4 5.5 5.4 5.1 5.5 5.7 5.6 6.1 7.7 8.0 7.3 7.8 8.7 10.7 12.1 12.3 12.3 11.3 12.8 15.3 17.1 18.8 16.8 13.5 9.0 7.1 8.6 8.5 8.6 8.0 6.9
5.0 5.2 4.9 4.9 5.0 5.4 5.5 5.4 5.5 4.9 4.8 5.2 5.4 5.4 6.0 7.2 7.7 7.6 8.3 9.4 10.3 10.9 11.4 11.5 10.8 13.9 18.6 20.9 19.2 16.4 15.4 12.8 11.3 7.5 6.8 8.0 11.9 12.7
6.1 6.0 5.3 4.8 5.0 5.2 5.4 5.4 5.4 4.8 4.7 5.1 5.6 5.9 6.2 7.2 7.4 8.0 8.5 9.0 10.0 10.3 11.0 11.8 13.1 15.5 17.9 17.9 18.1 16.8 15.0 12.8 12.6 12.2 12.2 6.2 5.2 5.6